Find Starlink 11571

NORAD ID: 62986 Int'l Des: 2025-031 Owner: SPXS Country: US Constellation: starlink operational
LEOCIRCULAR

現在のビュー

3D地球を読み込み中...

About Starlink 11571

Starlink 11571 (NORAD 62986) is a starlink constellation satellite (v2 mini d2c) launched Feb 11, 2025 by SPXS of US. It operates in LEO, CIRCULAR orbit with a mass of 960.00 kg.

Starlink 11571について

説明を読み込み中...

次回通過

Passes for default location (London). Set your location on the main map for personalized predictions.

高度履歴

Loading altitude history...

軌道要素

1 62986U 25031F 26171.16392281 .00163181 00000-0 12497-2 0 9996
2 62986 43.0009 103.3572 0001742 274.1984 85.8685 15.70853277 78863
Epoch: Jun 20, 2026 • Age: 11 hours

現在のステータス

高度 356.1 km
速度 7.70 km/s
衛星直下点 20.71°N, 119.2°E
打ち上げ日 Feb 11, 2025
運用期間 1.3 years
タイプ internet

技術仕様

分類 Payload
質量 960.00 kg
乾燥質量 910.00 kg
総質量 960.00 kg
長さ 0.30 m
直径 4.10 m
スパン 29.00 m
形状 Box + pan
製造者 SPXS
バスタイプ Starlink V2MD
フェーズステータス In Orbit
所有者/国 SPXS/US

Most Searched